Flag for Portugal Weather past 2 weeks in Braga, Portugal

Now
41 °F

Quite cool.


Feels Like: 39 °F
Forecast: 33 / 56 °F
Wind: 3 mph from East

Location: Porto / Pedras Rubras

Current Time: Jan 27, 2015 at 6:01:27 AM

Latest Report: Jan 27, 2015 at 5:00 AM


Visibility: N/A

Pressure: 30.46 "Hg

Humidity: 74%

Dew point: 34 °F

Location of BragaLocation

Historic Weather in Braga — Graph

°F

Braga temperature yesterday

Maximum temperature yesterday: 55 °F (at 4:00 PM)
Minimum temperature yesterday: 40 °F (at 8:00 AM)
Average temperature yesterday: 47 °F

Past Weeks' High & Low Weather Summary

 TemperatureHumidityPressure
High60 °F (Jan 12, 2:00 PM)94% (Jan 14, 6:00 AM)30.49 "Hg (Jan 14, 6:00 AM)
Low37 °F (Jan 17, 4:00 AM)53% (Jan 12, 2:00 PM)29.80 "Hg (Jan 15, 3:00 PM)
Average48 °F78%30.21 "Hg
* Reported Jan 12 4:00 AM — Jan 27 4:00 AM, Braga, Weather by CustomWeather, © 2014

Note: Actual official high and low records may vary slightly from our data, if they occured in-between our weather recording intervals... More about our weather records

Advertising

Braga weather history for previous 24 hours

 ConditionsComfort  
Time TempWeatherWind HumidityBarometerVisibility
4:00 AM
Jan 27
42 °FQuite cool.3 mph80%30.46 "HgN/A
3:00 AM42 °FQuite cool.2 mph84%30.47 "HgN/A
2:00 AM42 °FQuite cool.2 mph85%30.48 "HgN/A
1:00 AM42 °FQuite cool.1 mph85%30.48 "HgN/A
12:00 AM44 °FQuite cool.2 mph82%30.49 "HgN/A
11:00 PM
Jan 26
44 °FQuite cool.1 mph82%30.48 "HgN/A
10:00 PM47 °FCool.2 mph78%30.47 "HgN/A
8:00 PM49 °FCool.No wind78%30.47 "HgN/A
7:00 PM48 °FCool.2 mph78%30.45 "HgN/A
6:00 PM50 °FCool.2 mph76%30.45 "HgN/A
5:00 PM53 °FCool.3 mph66%30.43 "HgN/A
4:00 PM55 °FRefreshingly cool.2 mph58%30.44 "HgN/A
3:00 PM54 °FCool.5 mph58%30.45 "HgN/A
2:00 PM54 °FCool.2 mph57%30.45 "HgN/A
1:00 PM54 °FCool.3 mph59%30.47 "HgN/A
12:00 PM52 °FCool.2 mph64%30.48 "HgN/A
11:00 AM52 °FCool.1 mph59%30.48 "HgN/A
10:00 AM47 °FCool.3 mph71%30.47 "HgN/A
9:00 AM44 °FQuite cool.3 mph76%30.47 "HgN/A
8:00 AM40 °FChilly.2 mph77%30.46 "HgN/A
7:00 AM40 °FQuite cool.3 mph82%30.45 "HgN/A
6:00 AM41 °FQuite cool.1 mph80%30.45 "HgN/A
Weather by CustomWeather, © 2014

See weather overviewHow to use our weather pages